Find Lyra-1

NORAD ID: 62664 Int'l Des: 2025-009 Owner: ECHOAU Country: AU operational
LEOCIRCULARRETROGRADESSO

現在のビュー

3D地球を読み込み中...

Lyra-1について

説明を読み込み中...

次回通過

Passes for default location (London). Set your location on the main map for personalized predictions.

高度履歴

Loading altitude history...

軌道要素

1 62664U 25009BH 26148.76363676 .00012898 00000-0 62849-3 0 9995
2 62664 97.3987 223.7592 0007605 256.0887 103.9502 15.18444857 75473
Epoch: May 28, 2026 • Age: 36 hours

現在のステータス

高度 532.3 km
速度 7.60 km/s
衛星直下点 -74.11°S, 36.8°E
打ち上げ日 Jan 14, 2025
運用期間 1.3 years
タイプ other

技術仕様

分類 Payload
質量 74.00 kg
乾燥質量 74.00 kg
総質量 74.00 kg
長さ 0.60 m
直径 0.50 m
スパン 2.00 m
形状 Box
製造者 ADIG
バスタイプ Corvus XL
フェーズステータス In Orbit
所有者/国 ECHOAU/AU

Most Searched